GW3487 Weather Reports


time (UTC)temp
C
wind
direction
speed
KPH
gust
KPH
rain 1hr
cm
rain 24hr
cm
rain mn
cm
humidity
%
barometer
mb
20260504191528 13 314 35.4 49.9 0.00 0.00 0.00 31 1014.6
20260504190030 14 331 33.8 51.5 0.00 0.00 0.00 27 1014.6
20260504184536 13 314 38.6 61.2 0.00 0.00 0.00 31 1014.6
20260504183035 13 341 33.8 57.9 0.00 0.00 0.00 32 1014.5
20260504181532 12 333 45.1 56.3 0.00 0.00 0.00 32 1014.4
20260504180030 12 325 37.0 48.3 0.00 0.00 0.00 35 1014.9
20260504174530 12 360 35.4 46.7 0.00 0.00 0.00 36 1014.8
20260504173028 12 332 25.7 43.5 0.00 0.00 0.00 37 1014.9
20260504171528 12 324 38.6 49.9 0.00 0.00 0.00 37 1014.8
20260504081535 9 22 37.0 45.1 0.00 0.00 0.00 49 1014.5
20260504044528 13 28 20.9 29.0 0.00 0.00 0.00 36 1009.0
20260504043042 13 20 19.3 25.7 0.00 0.00 0.00 35 1008.5
20260504041534 14 10 20.9 27.4 0.00 0.00 0.00 35 1008.2
20260504040032 14 29 17.7 22.5 0.00 0.00 0.00 34 1008.1
20260504034530 15 11 19.3 27.4 0.00 0.00 0.00 33 1007.6
20260504033029 15 22 20.9 35.4 0.00 0.00 0.00 31 1007.2
20260504031530 14 21 14.5 22.5 0.00 0.00 0.00 27 1006.9
20260504030036 16 11 17.7 24.1 0.00 0.00 0.00 24 1006.7
20260504024529 17 20 6.4 12.9 0.00 0.00 0.00 22 1006.4
20260504023030 18 5 12.9 19.3 0.00 0.00 0.00 21 1006.3
20260504021540 19 360 16.1 19.3 0.00 0.00 0.00 20 1006.3
20260504020036 20 355 20.9 29.0 0.00 0.00 0.00 19 1006.3
20260504014529 21 5 22.5 29.0 0.00 0.00 0.00 18 1006.4
20260504013035 22 347 25.7 33.8 0.00 0.00 0.00 18 1006.5
20260504011530 22 355 27.4 33.8 0.00 0.00 0.00 17 1006.4
20260504010030 23 340 27.4 38.6 0.00 0.00 0.00 17 1006.4
20260504004541 23 331 19.3 32.2 0.00 0.00 0.00 16 1006.6
20260504003030 23 323 20.9 37.0 0.00 0.00 0.00 16 1006.8
20260504001534 23 360 17.7 38.6 0.00 0.00 0.00 15 1007.1
20260504000028 24 338 24.1 32.2 0.00 0.00 0.00 15 1006.9
20260503234529 25 331 22.5 37.0 0.00 0.00 0.00 15 1007.1
20260503233030 24 329 24.1 32.2 0.00 0.00 0.00 15 1007.1
20260503231530 24 323 25.7 38.6 0.00 0.00 0.00 15 1007.4
20260503230034 24 293 24.1 35.4 0.00 0.00 0.00 16 1007.5
20260503224530 24 282 20.9 30.6 0.00 0.00 0.00 16 1007.7
20260503223031 23 300 16.1 37.0 0.00 0.00 0.00 17 1007.9
20260503221535 23 291 22.5 30.6 0.00 0.00 0.00 16 1008.0
20260503220037 23 325 20.9 33.8 0.00 0.00 0.00 15 1008.1
20260503214542 23 236 22.5 37.0 0.00 0.00 0.00 15 1008.3
20260503213034 23 268 17.7 33.8 0.00 0.00 0.00 17 1008.6
20260503211532 22 269 19.3 43.5 0.00 0.00 0.00 17 1008.9
20260503210030 23 271 22.5 35.4 0.00 0.00 0.00 17 1009.1
20260503204532 22 265 24.1 40.2 0.00 0.00 0.00 17 1009.4
20260503203032 23 281 22.5 40.2 0.00 0.00 0.00 17 1009.6
20260503201532 22 299 29.0 41.8 0.00 0.00 0.00 16 1009.8
20260503200032 21 309 24.1 45.1 0.00 0.00 0.00 18 1009.8
20260503194534 22 222 20.9 38.6 0.00 0.00 0.00 19 1010.1
20260503193029 22 277 16.1 38.6 0.00 0.00 0.00 18 1010.3